User: anonymous   Login
Location: Unspecified
(0.0000°N, 0.0000°E)
Time: 13:27:34
(UTC+00:00)
Language:

Cosmos 1574 - Orbit

View from above orbital plane
View from above orbital plane
View from above satellite
View from above satellite

Ground track
Ground track

The orbit data is extracted from the following two-line orbital elements,

1 15055U 84062A   21016.20166977  .00000052  00000-0  39248-4 0  9991
2 15055  82.9574  99.0198 0027936 162.8998 216.2178 13.74328267834059
Epoch (UTC): 16 January 2021 04:50:24
Eccentricity: 0.0027936
inclination: 82.9574°
perigee height: 963 km
apogee height: 1004 km
right ascension of ascending node: 99.0198°
argument of perigee: 162.8998°
revolutions per day: 13.74328267
mean anomaly at epoch: 216.2178°
orbit number at epoch: 83405

The dashed part of the orbit path shows where the satellite is in the earth's shadow,  

DLR